Regional Weather Roundup
Issued by NWS State College, PA

Home | Current Version | Previous Version | Text Only | Print | Product List | Glossary Off
Versions: 1 2 3 4 5 6 7 8 9 10 11 12 13 14 15 16 17 18 19 20 21 22 23 24 25 26 27 28 29 30 31 32 33 34 35 36 37 38 39 40 41 42 43 44 45 46 47 48 49 50

000
ASUS41 KCTP 191810
RWRCTP

REGIONAL WEATHER ROUNDUP
NATIONAL WEATHER SERVICE STATE COLLEGE PA
200 PM EDT FRI SEP 19 2014

Note: "fair" indicates few or no clouds below 12,000 feet with no
significant weather and/or obstructions to visibility.

* = STATION THAT DOES NOT REPORT PRECIPITATION /E.G. RAIN...SNOW...ETC/
    THUNDER OR FOG.

PAZ002>004-007>009-013>016-020>023-029>032-191900-
WESTERN PENNSYLVANIA

CITY           SKY/WX    TMP DP  RH WIND       PRES   REMARKS
ERIE           MOSUNNY   64  49  57 NE10      30.24F
MEADVILLE      SUNNY     65  46  50 VRB6      30.24F
FRANKLIN*      SUNNY     64  46  52 E7        30.25F
NEW CASTLE     NOT AVBL
BEAVER COUNTY  SUNNY     70  50  49 SE5       30.21F
BUTLER*        SUNNY     68  50  52 E6        30.23F
PITTSBURGH INT MOSUNNY   69  50  50 SE9       30.20F
PITTSBURGH     SUNNY     70  49  47 E5        30.20F
INDIANA*       PTSUNNY   70  50  49 S6G14     30.27F
LATROBE        PTSUNNY   72  55  56 S7        30.22F
WASHINGTON CO* MOSUNNY   70  54  56 E5        30.20F
$$

PAZ004>006-010>012-017>019-024>028-033>037-041-042-045-046-049>053-191900-
CENTRAL PENNSYLVANIA

CITY           SKY/WX    TMP DP  RH WIND       PRES   REMARKS
BRADFORD       MOSUNNY   62  45  53 S8        30.26F
DUBOIS         MOSUNNY   66  50  56 SE9       30.25F
CLEARFIELD     MOSUNNY   64  49  57 VRB3      30.27F
JOHNSTOWN      PTSUNNY   64  50  60 S12       30.26F
ALTOONA        PTSUNNY   67  50  54 SE7       30.27F
STATE COLLEGE  PTSUNNY   64  50  59 NE9       30.28F
WILLIAMSPORT   SUNNY     65  45  48 CALM      30.29F
SELINSGROVE    SUNNY     69  49  48 VRB3      30.30F
FT INDIANTOWN  MOSUNNY   67  51  55 SE5       30.30F
CAPITAL CITY   SUNNY     69  49  48 E9        30.29F
HARRISBURG     MOSUNNY   72  50  45 SE6       30.28F
YORK           SUNNY     71  52  50 VRB7      30.28F
$$

PAZ038>040-043-044-047-048-054-055-060>062-067>071-191900-
EASTERN PENNSYLVANIA

CITY           SKY/WX    TMP DP  RH WIND       PRES   REMARKS
SCRANTON       SUNNY     67  44  43 W5        30.30F
MOUNT POCONO   MOSUNNY   59  45  59 SE9       30.33S
ALLENTOWN      PTSUNNY   67  49  52 VRB5      30.32F
QUAKERTOWN*    PTCLDY    66  48  52 E7        30.33S
READING        MOSUNNY   68  50  52 SE7       30.30S
LANCASTER      MOSUNNY   67  52  58 E8        30.30S
COATESVILLE    CLOUDY    63  54  72 E9        30.32S
POTTSTOWN      MOSUNNY   65  51  60 E5        30.33F
BLUE BELL      SUNNY     70  50  49 E7        30.31S
DOYLESTOWN     SUNNY     64  46  52 VRB5      30.32S
WILLOW GROVE   NOT AVBL
NORTH PHILA    MOSUNNY   70  47  43 E10G17    30.33F
PHILADELPHIA   PTSUNNY   70  52  52 E8        30.31F
$$


USA.gov is the U.S. government's official web portal to all federal, state and local government web resources and services.